^^
Your Local Weather - Clay, NY Station Historical Data
 
Daily Summary for February 18, 2019 Units:  Metric    English   Both
« Previous Day
Next Day »
Daily Weekly Monthly Yearly Custom
  Current: High: Low: Average:
Temperature: -7.8 °C -4.9 °C -8.4 °C -6.3 °C
Dew Point: -10 °C -7.1 °C -11.3 °C -8.8 °C
Humidity: 84% 88% 71% 83%
Wind Speed: 1.6km/h 9.7km/h 0km/h 4km/h
Wind Gust: 1.6km/h 17.7km/h - -
WindWNW - - SSW
Pressure: 1027.3 hPa 1027.3 hPa 1007.7 hPa -
Precipitation: 0 mm      
Historical Graphs
 
 
Tabular Data for February 18, 2019
Time Temperature Dew Point Pressure Wind Wind Speed Wind Gust Humidity Rainfall Rate (Hourly) solar
00:04 -4.9 °C -7.3 °C 1010.7 hPa ENE 4.8 km/h 11.3 km/h 83% 0 mm 0.00 W/m2
00:08 -5 °C -7.3 °C 1010.7 hPa ESE 6.4 km/h 11.3 km/h 84% 0 mm 0.00 W/m2
00:14 -5.1 °C -7.2 °C 1010.7 hPa East 8 km/h 8 km/h 85% 0 mm 0.00 W/m2
00:18 -5.2 °C -7.3 °C 1011.1 hPa ENE 4.8 km/h 8 km/h 85% 0 mm 0.00 W/m2
00:24 -5.2 °C -7.2 °C 1010.7 hPa NNE 4.8 km/h 11.3 km/h 86% 0 mm 0.00 W/m2
00:28 -5.2 °C -7.2 °C 1010.7 hPa ENE 6.4 km/h 11.3 km/h 86% 0 mm 0.00 W/m2
00:34 -5.2 °C -7.2 °C 1010.4 hPa East 6.4 km/h 6.4 km/h 86% 0 mm 0.00 W/m2
00:38 -5.3 °C -7.1 °C 1010.4 hPa East 6.4 km/h 6.4 km/h 87% 0 mm 0.00 W/m2
00:44 -5.3 °C -7.1 °C 1010 hPa NE 4.8 km/h 4.8 km/h 87% 0 mm 0.00 W/m2
00:48 -5.3 °C -7.2 °C 1010 hPa East 6.4 km/h 6.4 km/h 87% 0 mm 0.00 W/m2
00:54 -5.3 °C -7.2 °C 1010.4 hPa ENE 6.4 km/h 9.7 km/h 87% 0 mm 0.00 W/m2
00:58 -5.4 °C -7.2 °C 1010.4 hPa ENE 6.4 km/h 9.7 km/h 87% 0 mm 0.00 W/m2
01:04 -5.4 °C -7.2 °C 1010.4 hPa East 6.4 km/h 8 km/h 87% 0 mm 0.00 W/m2
01:08 -5.4 °C -7.2 °C 1010.4 hPa NNE 8 km/h 16.1 km/h 87% 0 mm 0.00 W/m2
01:14 -5.4 °C -7.2 °C 1010.4 hPa ESE 8 km/h 11.3 km/h 87% 0 mm 0.00 W/m2
01:18 -5.4 °C -7.3 °C 1010.4 hPa ESE 8 km/h 11.3 km/h 87% 0 mm 0.00 W/m2
01:24 -5.5 °C -7.3 °C 1010 hPa East 6.4 km/h 8 km/h 87% 0 mm 0.00 W/m2
01:28 -5.5 °C -7.3 °C 1009.7 hPa ESE 6.4 km/h 8 km/h 87% 0 mm 0.00 W/m2
01:34 -5.5 °C -7.3 °C 1009.7 hPa ENE 6.4 km/h 11.3 km/h 87% 0 mm 0.00 W/m2
01:38 -5.5 °C -7.3 °C 1009.7 hPa East 8 km/h 11.3 km/h 87% 0 mm 0.00 W/m2
01:44 -5.6 °C -7.4 °C 1009.7 hPa East 8 km/h 11.3 km/h 87% 0 mm 0.00 W/m2
01:48 -5.6 °C -7.4 °C 1009.7 hPa East 8 km/h 11.3 km/h 87% 0 mm 0.00 W/m2
01:54 -5.6 °C -7.4 °C 1010 hPa NE 6.4 km/h 8 km/h 87% 0 mm 0.00 W/m2
01:58 -5.6 °C -7.4 °C 1010 hPa East 4.8 km/h 8 km/h 87% 0 mm 0.00 W/m2
02:04 -5.6 °C -7.2 °C 1010 hPa ENE 4.8 km/h 11.3 km/h 88% 0 mm 0.00 W/m2
02:08 -5.6 °C -7.2 °C 1009.7 hPa ENE 4.8 km/h 11.3 km/h 88% 0 mm 0.00 W/m2
02:14 -5.6 °C -7.2 °C 1009.7 hPa East 4.8 km/h 8 km/h 88% 0 mm 0.00 W/m2
02:18 -5.6 °C -7.2 °C 1009.7 hPa ENE 4.8 km/h 8 km/h 88% 0 mm 0.00 W/m2
02:24 -5.6 °C -7.3 °C 1009.4 hPa NE 4.8 km/h 4.8 km/h 88% 0 mm 0.00 W/m2
02:28 -5.6 °C -7.3 °C 1009 hPa East 4.8 km/h 8 km/h 88% 0 mm 0.00 W/m2
02:34 -5.7 °C -7.3 °C 1009 hPa ENE 6.4 km/h 14.5 km/h 88% 0 mm 0.00 W/m2
02:38 -5.7 °C -7.3 °C 1009 hPa ENE 6.4 km/h 14.5 km/h 88% 0 mm 0.00 W/m2
02:44 -5.7 °C -7.5 °C 1009 hPa East 6.4 km/h 12.9 km/h 87% 0 mm 0.00 W/m2
02:48 -5.7 °C -7.5 °C 1009 hPa ENE 6.4 km/h 12.9 km/h 87% 0 mm 0.00 W/m2
02:54 -5.7 °C -7.3 °C 1009 hPa SE 6.4 km/h 6.4 km/h 88% 0 mm 0.00 W/m2
02:58 -5.7 °C -7.3 °C 1009 hPa ENE 4.8 km/h 6.4 km/h 88% 0 mm 0.00 W/m2
03:04 -5.7 °C -7.3 °C 1009 hPa East 4.8 km/h 6.4 km/h 88% 0 mm 0.00 W/m2
03:08 -5.7 °C -7.3 °C 1008.7 hPa ENE 4.8 km/h 6.4 km/h 88% 0 mm 0.00 W/m2
03:14 -5.7 °C -7.3 °C 1008.7 hPa ENE 4.8 km/h 4.8 km/h 88% 0 mm 0.00 W/m2
03:18 -5.7 °C -7.3 °C 1008.7 hPa NE 4.8 km/h 6.4 km/h 88% 0 mm 0.00 W/m2
03:24 -5.7 °C -7.3 °C 1008.7 hPa East 4.8 km/h 6.4 km/h 88% 0 mm 0.00 W/m2
03:28 -5.7 °C -7.3 °C 1008.7 hPa East 4.8 km/h 12.9 km/h 88% 0 mm 0.00 W/m2
03:34 -5.7 °C -7.3 °C 1008.4 hPa ESE 6.4 km/h 8 km/h 88% 0 mm 0.00 W/m2
03:38 -5.7 °C -7.4 °C 1008.7 hPa East 8 km/h 11.3 km/h 88% 0 mm 0.00 W/m2
03:44 -5.7 °C -7.5 °C 1008.4 hPa East 6.4 km/h 8 km/h 87% 0 mm 0.00 W/m2
03:48 -5.7 °C -7.4 °C 1008.4 hPa ENE 4.8 km/h 8 km/h 88% 0 mm 0.00 W/m2
03:54 -5.7 °C -7.4 °C 1008.4 hPa ENE 4.8 km/h 4.8 km/h 88% 0 mm 0.00 W/m2
03:58 -5.7 °C -7.6 °C 1008.4 hPa ENE 3.2 km/h 4.8 km/h 87% 0 mm 0.00 W/m2
04:04 -5.7 °C -7.4 °C 1008.4 hPa East 4.8 km/h 9.7 km/h 88% 0 mm 0.00 W/m2
04:08 -5.8 °C -7.4 °C 1008 hPa ENE 6.4 km/h 9.7 km/h 88% 0 mm 0.00 W/m2
04:14 -5.7 °C -7.4 °C 1008.4 hPa East 4.8 km/h 6.4 km/h 88% 0 mm 0.00 W/m2
04:18 -5.8 °C -7.4 °C 1008.4 hPa East 4.8 km/h 8 km/h 88% 0 mm 0.00 W/m2
04:24 -5.8 °C -7.4 °C 1008.4 hPa ENE 4.8 km/h 8 km/h 88% 0 mm 0.00 W/m2
04:28 -5.8 °C -7.6 °C 1008.4 hPa East 4.8 km/h 8 km/h 87% 0 mm 0.00 W/m2
04:34 -5.8 °C -7.6 °C 1008.4 hPa East 4.8 km/h 11.3 km/h 87% 0 mm 0.00 W/m2
04:38 -5.8 °C -7.6 °C 1008.4 hPa ENE 4.8 km/h 11.3 km/h 87% 0 mm 0.00 W/m2
04:44 -5.7 °C -7.6 °C 1008.4 hPa ENE 4.8 km/h 6.4 km/h 87% 0 mm 0.00 W/m2
04:48 -5.7 °C -7.6 °C 1008.4 hPa East 4.8 km/h 6.4 km/h 87% 0 mm 0.00 W/m2
04:54 -5.7 °C -7.6 °C 1008 hPa East 4.8 km/h 12.9 km/h 87% 0 mm 0.00 W/m2
04:58 -5.7 °C -7.6 °C 1008.4 hPa ESE 4.8 km/h 12.9 km/h 87% 0 mm 0.00 W/m2
05:04 -5.7 °C -7.6 °C 1008 hPa NE 3.2 km/h 9.7 km/h 87% 0 mm 0.00 W/m2
05:08 -5.8 °C -7.6 °C 1008 hPa East 4.8 km/h 9.7 km/h 87% 0 mm 0.00 W/m2
05:14 -5.7 °C -7.6 °C 1008.4 hPa ENE 4.8 km/h 6.4 km/h 87% 0 mm 0.00 W/m2
05:18 -5.8 °C -7.6 °C 1008.4 hPa ENE 4.8 km/h 6.4 km/h 87% 0 mm 0.00 W/m2
05:24 -5.7 °C -7.6 °C 1008.4 hPa NE 4.8 km/h 11.3 km/h 87% 0 mm 0.00 W/m2
05:28 -5.7 °C -7.6 °C 1008.4 hPa ENE 4.8 km/h 11.3 km/h 87% 0 mm 0.00 W/m2
05:34 -5.7 °C -7.5 °C 1008.4 hPa East 4.8 km/h 4.8 km/h 87% 0 mm 0.00 W/m2
05:38 -5.7 °C -7.7 °C 1008 hPa ENE 3.2 km/h 4.8 km/h 86% 0 mm 0.00 W/m2
05:44 -5.7 °C -7.7 °C 1008 hPa ENE 3.2 km/h 4.8 km/h 86% 0 mm 0.00 W/m2
05:48 -5.7 °C -7.7 °C 1008 hPa East 3.2 km/h 6.4 km/h 86% 0 mm 0.00 W/m2
05:54 -5.7 °C -7.6 °C 1008 hPa NE 3.2 km/h 6.4 km/h 86% 0 mm 0.00 W/m2
05:58 -5.7 °C -7.7 °C 1008 hPa NE 3.2 km/h 6.4 km/h 86% 0 mm 0.00 W/m2
06:04 -5.7 °C -7.7 °C 1008 hPa NE 3.2 km/h 3.2 km/h 86% 0 mm 0.00 W/m2
06:08 -5.7 °C -7.7 °C 1007.7 hPa SE 1.6 km/h 3.2 km/h 86% 0 mm 0.00 W/m2
06:14 -5.7 °C -7.6 °C 1008 hPa ENE 3.2 km/h 8 km/h 86% 0 mm 0.00 W/m2
06:18 -5.7 °C -7.7 °C 1008 hPa ENE 3.2 km/h 9.7 km/h 86% 0 mm 0.00 W/m2
06:24 -5.7 °C -7.8 °C 1008 hPa ENE 3.2 km/h 3.2 km/h 85% 0 mm 0.00 W/m2
06:28 -5.7 °C -7.8 °C 1007.7 hPa ENE 3.2 km/h 8 km/h 85% 0 mm 0.00 W/m2
06:34 -5.7 °C -7.8 °C 1008 hPa ENE 3.2 km/h 3.2 km/h 85% 0 mm 0.00 W/m2
06:38 -5.7 °C -7.8 °C 1008 hPa NE 1.6 km/h 4.8 km/h 85% 0 mm 0.00 W/m2
06:44 -5.6 °C -7.7 °C 1008 hPa NE 1.6 km/h 1.6 km/h 85% 0 mm 0.00 W/m2
06:48 -5.6 °C -7.7 °C 1008 hPa NE 1.6 km/h 3.2 km/h 85% 0 mm 0.00 W/m2
06:54 -5.7 °C -7.8 °C 1008 hPa ENE 1.6 km/h 4.8 km/h 85% 0 mm 0.00 W/m2
06:58 -5.6 °C -7.7 °C 1008 hPa ENE 1.6 km/h 4.8 km/h 85% 0 mm 0.00 W/m2
07:04 -5.6 °C -7.7 °C 1008 hPa ENE 1.6 km/h 4.8 km/h 85% 0 mm 0.00 W/m2
07:08 -5.6 °C -7.7 °C 1008 hPa ENE 3.2 km/h 4.8 km/h 85% 0 mm 0.00 W/m2
07:14 -5.6 °C -7.7 °C 1008 hPa ENE 3.2 km/h 3.2 km/h 85% 0 mm 0.00 W/m2
07:18 -5.6 °C -7.7 °C 1008 hPa ENE 3.2 km/h 3.2 km/h 85% 0 mm 0.00 W/m2
07:24 -5.6 °C -7.7 °C 1008.4 hPa ENE 1.6 km/h 3.2 km/h 85% 0 mm 0.00 W/m2
07:28 -5.6 °C -7.7 °C 1008.4 hPa ENE 1.6 km/h 3.2 km/h 85% 0 mm 0.00 W/m2
07:34 -5.6 °C -7.7 °C 1008.4 hPa NE 1.6 km/h 3.2 km/h 85% 0 mm 5.00 W/m2
07:38 -5.5 °C -7.6 °C 1008.7 hPa NNE 1.6 km/h 4.8 km/h 85% 0 mm 5.00 W/m2
07:44 -5.5 °C -7.6 °C 1009 hPa NNE 3.2 km/h 9.7 km/h 85% 0 mm 7.00 W/m2
07:48 -5.5 °C -7.6 °C 1009 hPa NE 3.2 km/h 9.7 km/h 85% 0 mm 9.00 W/m2
07:54 -5.5 °C -7.6 °C 1009 hPa NNE 1.6 km/h 4.8 km/h 85% 0 mm 11.00 W/m2
07:58 -5.4 °C -7.6 °C 1009 hPa NNE 3.2 km/h 4.8 km/h 85% 0 mm 11.00 W/m2
08:04 -5.4 °C -7.5 °C 1009 hPa NNE 3.2 km/h 4.8 km/h 85% 0 mm 12.00 W/m2
08:08 -5.4 °C -7.5 °C 1009 hPa NE 3.2 km/h 4.8 km/h 85% 0 mm 14.00 W/m2
08:14 -5.4 °C -7.5 °C 1009 hPa North 3.2 km/h 4.8 km/h 85% 0 mm 14.00 W/m2
08:18 -5.4 °C -7.5 °C 1009 hPa North 3.2 km/h 4.8 km/h 85% 0 mm 28.00 W/m2
08:24 -5.3 °C -7.3 °C 1009.4 hPa North 1.6 km/h 3.2 km/h 86% 0 mm 33.00 W/m2
08:28 -5.3 °C -7.3 °C 1009.4 hPa North 1.6 km/h 3.2 km/h 86% 0 mm 35.00 W/m2
08:34 -5.2 °C -7.2 °C 1009.4 hPa Calm   1.6 km/h 86% 0 mm 30.00 W/m2
08:38 -5.2 °C -7.2 °C 1009.7 hPa Calm   1.6 km/h 86% 0 mm 32.00 W/m2
08:44 -5.2 °C -7.2 °C 1009.7 hPa Calm     86% 0 mm 35.00 W/m2
08:48 -5.2 °C -7.2 °C 1009.7 hPa Calm     86% 0 mm 35.00 W/m2
08:54 -5.1 °C -7.1 °C 1009.7 hPa Calm     86% 0 mm 37.00 W/m2
08:58 -5.1 °C -7.1 °C 1010 hPa NNW 1.6 km/h 3.2 km/h 86% 0 mm 32.00 W/m2
09:04 -5.2 °C -7.2 °C 1010 hPa NNW 1.6 km/h 3.2 km/h 86% 0 mm 42.00 W/m2
09:08 -5.3 °C -7.3 °C 1010 hPa WNW 1.6 km/h 3.2 km/h 86% 0 mm 56.00 W/m2
09:14 -5.6 °C -7.5 °C 1010.4 hPa NNW 3.2 km/h 6.4 km/h 86% 0 mm 67.00 W/m2
09:18 -5.7 °C -7.6 °C 1010.4 hPa NNW 3.2 km/h 6.4 km/h 86% 0 mm 79.00 W/m2
09:24 -5.8 °C -7.7 °C 1010.4 hPa NW 1.6 km/h 3.2 km/h 86% 0 mm 72.00 W/m2
09:28 -5.9 °C -7.9 °C 1010.7 hPa WNW 1.6 km/h 4.8 km/h 86% 0 mm 79.00 W/m2
09:34 -6.2 °C -8.3 °C 1010.7 hPa WNW 3.2 km/h 6.4 km/h 85% 0 mm 91.00 W/m2
09:38 -6.2 °C -8.3 °C 1010.7 hPa WNW 3.2 km/h 6.4 km/h 85% 0 mm 107.00 W/m2
09:44 -6.3 °C -8.4 °C 1010.7 hPa WNW 3.2 km/h 4.8 km/h 85% 0 mm 107.00 W/m2
09:48 -6.2 °C -8.3 °C 1011.1 hPa WNW 1.6 km/h 4.8 km/h 85% 0 mm 104.00 W/m2
09:54 -6.1 °C -8.2 °C 1011.1 hPa WNW 1.6 km/h 4.8 km/h 85% 0 mm 118.00 W/m2
09:58 -6.1 °C -8.2 °C 1011.1 hPa WNW 3.2 km/h 4.8 km/h 85% 0 mm 130.00 W/m2
10:04 -6 °C -8.1 °C 1011.1 hPa WNW 3.2 km/h 3.2 km/h 85% 0 mm 137.00 W/m2
10:08 -5.9 °C -8 °C 1011.1 hPa WNW 1.6 km/h 4.8 km/h 85% 0 mm 146.00 W/m2
10:14 -5.7 °C -7.8 °C 1011.4 hPa NW 1.6 km/h 1.6 km/h 85% 0 mm 155.00 W/m2
10:18 -5.6 °C -7.7 °C 1011.7 hPa NW 1.6 km/h 3.2 km/h 85% 0 mm 172.00 W/m2
10:24 -5.4 °C -7.5 °C 1011.7 hPa NW 1.6 km/h 6.4 km/h 85% 0 mm 181.00 W/m2
10:28 -5.3 °C -7.6 °C 1011.7 hPa WNW 3.2 km/h 6.4 km/h 84% 0 mm 197.00 W/m2
10:34 -5.4 °C -7.8 °C 1012.1 hPa WNW 4.8 km/h 8 km/h 83% 0 mm 230.00 W/m2
10:38 -5.3 °C -7.9 °C 1012.1 hPa WNW 3.2 km/h 8 km/h 82% 0 mm 221.00 W/m2
10:44 -5.2 °C -7.8 °C 1012.1 hPa NW 3.2 km/h 4.8 km/h 82% 0 mm 190.00 W/m2
10:48 -5.2 °C -7.8 °C 1012.4 hPa West 4.8 km/h 6.4 km/h 82% 0 mm 171.00 W/m2
10:54 -5.3 °C -7.9 °C 1012.8 hPa WNW 4.8 km/h 6.4 km/h 82% 0 mm 141.00 W/m2
10:58 -5.6 °C -8.2 °C 1012.8 hPa West 6.4 km/h 9.7 km/h 82% 0 mm 134.00 W/m2
11:04 -5.9 °C -8.4 °C 1013.1 hPa West 8 km/h 11.3 km/h 82% 0 mm 127.00 W/m2
11:08 -5.9 °C -8.5 °C 1013.1 hPa WNW 6.4 km/h 11.3 km/h 82% 0 mm 128.00 W/m2
11:14 -6.1 °C -8.8 °C 1013.4 hPa NW 6.4 km/h 11.3 km/h 81% 0 mm 125.00 W/m2
11:18 -6.2 °C -8.9 °C 1013.4 hPa North 6.4 km/h 16.1 km/h 81% 0 mm 134.00 W/m2
11:24 -6.3 °C -9.1 °C 1013.8 hPa West 6.4 km/h 11.3 km/h 81% 0 mm 169.00 W/m2
11:28 -6.4 °C -9.2 °C 1013.8 hPa NW 6.4 km/h 11.3 km/h 81% 0 mm 142.00 W/m2
11:34 -6.6 °C -9.3 °C 1013.8 hPa NNW 6.4 km/h 6.4 km/h 81% 0 mm 141.00 W/m2
11:38 -6.6 °C -9.3 °C 1014.1 hPa NW 4.8 km/h 6.4 km/h 81% 0 mm 155.00 W/m2
11:44 -6.6 °C -9.5 °C 1014.1 hPa NW 4.8 km/h 4.8 km/h 80% 0 mm 146.00 W/m2
11:48 -6.7 °C -9.6 °C 1014.1 hPa NW 4.8 km/h 6.4 km/h 80% 0 mm 142.00 W/m2
11:54 -7.1 °C -10 °C 1014.4 hPa WNW 6.4 km/h 6.4 km/h 80% 0 mm 109.00 W/m2
11:58 -7.3 °C -10.2 °C 1014.4 hPa WNW 8 km/h 8 km/h 80% 0 mm 141.00 W/m2
12:04 -7.3 °C -10.2 °C 1014.8 hPa WNW 6.4 km/h 9.7 km/h 80% 0 mm 134.00 W/m2
12:08 -7.3 °C -10.2 °C 1014.8 hPa NW 8 km/h 9.7 km/h 80% 0 mm 142.00 W/m2
12:14 -7.3 °C -10.2 °C 1014.8 hPa NW 8 km/h 12.9 km/h 80% 0 mm 146.00 W/m2
12:18 -7.2 °C -10.1 °C 1014.8 hPa WNW 6.4 km/h 12.9 km/h 80% 0 mm 167.00 W/m2
12:24 -7.2 °C -10.1 °C 1015.1 hPa WNW 6.4 km/h 8 km/h 80% 0 mm 137.00 W/m2
12:28 -7.2 °C -10.1 °C 1015.5 hPa WNW 6.4 km/h 8 km/h 80% 0 mm 169.00 W/m2
12:34 -7.2 °C -10.1 °C 1015.5 hPa WNW 8 km/h 11.3 km/h 80% 0 mm 186.00 W/m2
12:38 -7.2 °C -10.1 °C 1015.5 hPa NW 6.4 km/h 11.3 km/h 80% 0 mm 193.00 W/m2
12:44 -7.1 °C -9.9 °C 1015.5 hPa WNW 6.4 km/h 11.3 km/h 80% 0 mm 246.00 W/m2
12:48 -7 °C -10.1 °C 1015.8 hPa NNW 6.4 km/h 11.3 km/h 79% 0 mm 269.00 W/m2
12:54 -6.9 °C -10 °C 1015.8 hPa NW 8 km/h 14.5 km/h 79% 0 mm 230.00 W/m2
12:58 -6.8 °C -9.9 °C 1015.8 hPa NW 8 km/h 14.5 km/h 79% 0 mm 246.00 W/m2
13:04 -6.7 °C -9.9 °C 1015.8 hPa WNW 6.4 km/h 6.4 km/h 78% 0 mm 251.00 W/m2
13:08 -6.8 °C -10 °C 1016.1 hPa NW 6.4 km/h 14.5 km/h 78% 0 mm 197.00 W/m2
13:14 -6.8 °C -9.9 °C 1016.5 hPa WNW 6.4 km/h 8 km/h 79% 0 mm 169.00 W/m2
13:18 -6.7 °C -9.8 °C 1016.1 hPa NW 6.4 km/h 9.7 km/h 79% 0 mm 220.00 W/m2
13:24 -6.7 °C -9.8 °C 1016.5 hPa NW 4.8 km/h 11.3 km/h 79% 0 mm 272.00 W/m2
13:28 -6.8 °C -10 °C 1016.5 hPa West 6.4 km/h 14.5 km/h 78% 0 mm 207.00 W/m2
13:34 -6.8 °C -9.9 °C 1016.5 hPa NNW 6.4 km/h 8 km/h 79% 0 mm 287.00 W/m2
13:38 -6.7 °C -9.7 °C 1016.8 hPa WNW 6.4 km/h 9.7 km/h 79% 0 mm 274.00 W/m2
13:44 -6.6 °C -9.6 °C 1016.8 hPa NW 4.8 km/h 6.4 km/h 79% 0 mm 287.00 W/m2
13:48 -6.6 °C -9.8 °C 1016.8 hPa NW 6.4 km/h 11.3 km/h 78% 0 mm 323.00 W/m2
13:52 -6.9 °C -10.2 °C 1017.2 hPa NW 8 km/h 11.3 km/h 77% 0 mm 295.00 W/m2
13:58 -6.9 °C -10.1 °C 1017.2 hPa WNW 9.7 km/h 11.3 km/h 78% 0 mm 271.00 W/m2
14:04 -7.1 °C -10.2 °C 1017.5 hPa WNW 9.7 km/h 17.7 km/h 78% 0 mm 318.00 W/m2
14:08 -6.9 °C -10.1 °C 1017.5 hPa WNW 8 km/h 17.7 km/h 78% 0 mm 311.00 W/m2
14:14 -6.4 °C -9.6 °C 1017.5 hPa WNW 8 km/h 11.3 km/h 78% 0 mm 489.00 W/m2
14:18 -6.2 °C -9.6 °C 1017.5 hPa NW 6.4 km/h 11.3 km/h 77% 0 mm 341.00 W/m2
14:24 -6.3 °C -9.7 °C 1017.8 hPa NNW 8 km/h 8 km/h 77% 0 mm 345.00 W/m2
14:28 -6.4 °C -9.9 °C 1018.2 hPa WNW 8 km/h 8 km/h 76% 0 mm 279.00 W/m2
14:34 -6.5 °C -9.9 °C 1018.2 hPa NW 8 km/h 14.5 km/h 77% 0 mm 559.00 W/m2
14:38 -6.2 °C -9.8 °C 1018.2 hPa NNW 8 km/h 16.1 km/h 76% 0 mm 591.00 W/m2
14:44 -6.1 °C -9.7 °C 1018.5 hPa WNW 8 km/h 9.7 km/h 76% 0 mm 295.00 W/m2
14:48 -6.2 °C -9.8 °C 1018.5 hPa NW 8 km/h 9.7 km/h 76% 0 mm 295.00 W/m2
14:54 -6.1 °C -9.7 °C 1018.5 hPa WNW 6.4 km/h 17.7 km/h 76% 0 mm 316.00 W/m2
14:58 -6.3 °C -10 °C 1018.8 hPa WNW 8 km/h 17.7 km/h 75% 0 mm 302.00 W/m2
15:04 -6.1 °C -9.7 °C 1018.8 hPa NW 8 km/h 8 km/h 76% 0 mm 221.00 W/m2
15:08 -6.2 °C -10.1 °C 1018.8 hPa NW 4.8 km/h 8 km/h 74% 0 mm 197.00 W/m2
15:14 -6.2 °C -10.1 °C 1019.2 hPa NW 4.8 km/h 4.8 km/h 74% 0 mm 225.00 W/m2
15:18 -6.4 °C -10.5 °C 1019.5 hPa NNW 6.4 km/h 6.4 km/h 73% 0 mm 232.00 W/m2
15:24 -6.3 °C -10.2 °C 1019.5 hPa WNW 6.4 km/h 6.4 km/h 74% 0 mm 179.00 W/m2
15:28 -6.4 °C -10.3 °C 1019.5 hPa NNW 4.8 km/h 6.4 km/h 74% 0 mm 199.00 W/m2
15:34 -6.4 °C -10.3 °C 1019.5 hPa NW 6.4 km/h 6.4 km/h 74% 0 mm 181.00 W/m2
15:38 -6.4 °C -10.3 °C 1019.5 hPa NNW 6.4 km/h 9.7 km/h 74% 0 mm 139.00 W/m2
15:44 -6.5 °C -10.7 °C 1019.9 hPa NW 6.4 km/h 9.7 km/h 72% 0 mm 155.00 W/m2
15:48 -6.6 °C -10.8 °C 1020.2 hPa NNW 8 km/h 16.1 km/h 72% 0 mm 107.00 W/m2
15:54 -6.7 °C -11.1 °C 1020.2 hPa WNW 8 km/h 12.9 km/h 71% 0 mm 114.00 W/m2
15:58 -6.7 °C -11.1 °C 1020.2 hPa NNW 8 km/h 12.9 km/h 71% 0 mm 127.00 W/m2
16:04 -6.6 °C -11 °C 1020.5 hPa NNW 4.8 km/h 8 km/h 71% 0 mm 120.00 W/m2
16:08 -6.6 °C -10.9 °C 1020.5 hPa NW 4.8 km/h 11.3 km/h 71% 0 mm 107.00 W/m2
16:14 -6.7 °C -11.1 °C 1020.5 hPa NW 8 km/h 14.5 km/h 71% 0 mm 95.00 W/m2
16:18 -6.7 °C -11.1 °C 1020.5 hPa NW 8 km/h 14.5 km/h 71% 0 mm 95.00 W/m2
16:24 -6.7 °C -11.1 °C 1020.9 hPa WNW 4.8 km/h 6.4 km/h 71% 0 mm 88.00 W/m2
16:28 -6.7 °C -11.1 °C 1020.9 hPa NNW 4.8 km/h 8 km/h 71% 0 mm 83.00 W/m2
16:34 -6.8 °C -11.2 °C 1021.2 hPa WNW 4.8 km/h 6.4 km/h 71% 0 mm 76.00 W/m2
16:38 -6.8 °C -11.2 °C 1021.2 hPa NW 4.8 km/h 8 km/h 71% 0 mm 69.00 W/m2
16:44 -6.8 °C -11.2 °C 1021.2 hPa NNW 4.8 km/h 6.4 km/h 71% 0 mm 65.00 W/m2
16:48 -6.9 °C -11.3 °C 1021.2 hPa NNW 4.8 km/h 6.4 km/h 71% 0 mm 54.00 W/m2
16:54 -6.9 °C -11.1 °C 1021.6 hPa NNW 4.8 km/h 4.8 km/h 72% 0 mm 44.00 W/m2
16:58 -6.9 °C -11.1 °C 1021.6 hPa NNW 3.2 km/h 4.8 km/h 72% 0 mm 33.00 W/m2
17:04 -6.9 °C -10.9 °C 1021.6 hPa NNW 3.2 km/h 4.8 km/h 73% 0 mm 25.00 W/m2
17:08 -7 °C -10.8 °C 1021.9 hPa NNW 1.6 km/h 4.8 km/h 74% 0 mm 21.00 W/m2
17:14 -7 °C -10.7 °C 1021.9 hPa Calm   1.6 km/h 75% 0 mm 18.00 W/m2
17:18 -7 °C -10.5 °C 1022.2 hPa Calm   1.6 km/h 76% 0 mm 14.00 W/m2
17:24 -7 °C -10.3 °C 1022.2 hPa Calm   1.6 km/h 77% 0 mm 11.00 W/m2
17:28 -7 °C -10.3 °C 1022.2 hPa Calm   3.2 km/h 77% 0 mm 7.00 W/m2
17:34 -7.1 °C -10.3 °C 1022.6 hPa NNW 1.6 km/h 1.6 km/h 78% 0 mm 5.00 W/m2
17:38 -7.1 °C -10.2 °C 1022.6 hPa NNW 1.6 km/h 1.6 km/h 78% 0 mm 0.00 W/m2
17:44 -7.1 °C -10.1 °C 1022.6 hPa Calm     79% 0 mm 0.00 W/m2
17:48 -7.1 °C -10 °C 1022.9 hPa Calm     80% 0 mm 0.00 W/m2
17:54 -7.1 °C -10 °C 1022.9 hPa Calm     80% 0 mm 0.00 W/m2
17:58 -7.2 °C -9.9 °C 1023.2 hPa Calm   3.2 km/h 81% 0 mm 0.00 W/m2
18:04 -7.2 °C -9.9 °C 1023.2 hPa NNW 1.6 km/h 3.2 km/h 81% 0 mm 0.00 W/m2
18:08 -7.1 °C -9.8 °C 1023.6 hPa NNW 1.6 km/h 3.2 km/h 81% 0 mm 0.00 W/m2
18:14 -7.2 °C -9.9 °C 1023.6 hPa NNW 1.6 km/h 1.6 km/h 81% 0 mm 0.00 W/m2
18:18 -7.1 °C -9.8 °C 1023.9 hPa Calm   1.6 km/h 81% 0 mm 0.00 W/m2
18:24 -7.1 °C -9.8 °C 1023.9 hPa Calm   3.2 km/h 81% 0 mm 0.00 W/m2
18:28 -7.1 °C -9.8 °C 1023.9 hPa Calm   3.2 km/h 81% 0 mm 0.00 W/m2
18:34 -7.1 °C -9.8 °C 1023.9 hPa Calm     81% 0 mm 0.00 W/m2
18:38 -7.2 °C -9.7 °C 1024.3 hPa Calm     82% 0 mm 0.00 W/m2
18:44 -7.2 °C -9.7 °C 1024.3 hPa Calm   3.2 km/h 82% 0 mm 0.00 W/m2
18:48 -7.2 °C -9.8 °C 1024.3 hPa Calm   3.2 km/h 82% 0 mm 0.00 W/m2
18:54 -7.2 °C -9.7 °C 1024.6 hPa Calm     82% 0 mm 0.00 W/m2
18:58 -7.2 °C -9.8 °C 1024.6 hPa Calm     82% 0 mm 0.00 W/m2
19:04 -7.3 °C -9.8 °C 1024.9 hPa Calm     82% 0 mm 0.00 W/m2
19:08 -7.3 °C -9.9 °C 1024.9 hPa Calm     82% 0 mm 0.00 W/m2
19:14 -7.4 °C -10 °C 1024.9 hPa Calm     82% 0 mm 0.00 W/m2
19:18 -7.6 °C -10.2 °C 1024.9 hPa Calm     82% 0 mm 0.00 W/m2
19:24 -7.7 °C -10.3 °C 1024.9 hPa Calm     82% 0 mm 0.00 W/m2
19:28 -7.9 °C -10.4 °C 1025.3 hPa Calm     82% 0 mm 0.00 W/m2
19:34 -8 °C -10.4 °C 1025.3 hPa Calm     83% 0 mm 0.00 W/m2
19:38 -8.1 °C -10.5 °C 1025.3 hPa Calm     83% 0 mm 0.00 W/m2
19:44 -8.2 °C -10.6 °C 1025.3 hPa Calm     83% 0 mm 0.00 W/m2
19:48 -8.2 °C -10.4 °C 1025.3 hPa Calm     84% 0 mm 0.00 W/m2
19:54 -8.2 °C -10.4 °C 1025.3 hPa Calm     84% 0 mm 0.00 W/m2
19:58 -8.2 °C -10.4 °C 1025.3 hPa Calm     84% 0 mm 0.00 W/m2
20:04 -8.2 °C -10.4 °C 1025.6 hPa Calm     84% 0 mm 0.00 W/m2
20:08 -8.3 °C -10.5 °C 1025.6 hPa Calm     84% 0 mm 0.00 W/m2
20:14 -8.4 °C -10.6 °C 1026 hPa Calm     84% 0 mm 0.00 W/m2
20:18 -8.4 °C -10.4 °C 1026 hPa Calm     85% 0 mm 0.00 W/m2
20:24 -8.4 °C -10.4 °C 1026 hPa Calm     85% 0 mm 0.00 W/m2
20:28 -8.3 °C -10.4 °C 1026 hPa Calm     85% 0 mm 0.00 W/m2
20:34 -8.2 °C -10.3 °C 1026 hPa Calm     85% 0 mm 0.00 W/m2
20:38 -8.2 °C -10.3 °C 1026 hPa Calm   3.2 km/h 85% 0 mm 0.00 W/m2
20:44 -8.3 °C -10.3 °C 1026 hPa Calm     85% 0 mm 0.00 W/m2
20:48 -8.3 °C -10.2 °C 1026.3 hPa Calm     86% 0 mm 0.00 W/m2
20:54 -8.3 °C -10.2 °C 1026.3 hPa Calm   3.2 km/h 86% 0 mm 0.00 W/m2
20:58 -8.3 °C -10.2 °C 1026.3 hPa Calm   3.2 km/h 86% 0 mm 0.00 W/m2
21:04 -8.3 °C -10.2 °C 1026.6 hPa Calm     86% 0 mm 0.00 W/m2
21:08 -8.3 °C -10.2 °C 1026.6 hPa Calm   1.6 km/h 86% 0 mm 0.00 W/m2
21:14 -8.2 °C -10.1 °C 1026.6 hPa Calm     86% 0 mm 0.00 W/m2
21:18 -8.1 °C -9.9 °C 1026.6 hPa Calm     87% 0 mm 0.00 W/m2
21:24 -7.9 °C -9.7 °C 1026.6 hPa Calm   4.8 km/h 87% 0 mm 0.00 W/m2
21:28 -7.8 °C -9.6 °C 1027 hPa WSW 1.6 km/h 4.8 km/h 87% 0 mm 0.00 W/m2
21:34 -7.7 °C -9.4 °C 1027 hPa WSW 1.6 km/h 4.8 km/h 87% 0 mm 0.00 W/m2
21:38 -7.5 °C -9.3 °C 1027 hPa West 3.2 km/h 4.8 km/h 87% 0 mm 0.00 W/m2
21:44 -7.3 °C -9.1 °C 1027 hPa WSW 3.2 km/h 4.8 km/h 87% 0 mm 0.00 W/m2
21:48 -7.4 °C -9.3 °C 1027 hPa West 3.2 km/h 4.8 km/h 86% 0 mm 0.00 W/m2
21:54 -7.4 °C -9.3 °C 1027 hPa WSW 4.8 km/h 9.7 km/h 86% 0 mm 0.00 W/m2
21:58 -7.4 °C -9.6 °C 1027 hPa West 4.8 km/h 9.7 km/h 85% 0 mm 0.00 W/m2
22:02 -7.5 °C -9.6 °C 1027 hPa West 4.8 km/h 4.8 km/h 85% 0 mm 0.00 W/m2
22:08 -7.6 °C -9.8 °C 1027.3 hPa West 1.6 km/h 6.4 km/h 84% 0 mm 0.00 W/m2
22:14 -7.8 °C -10 °C 1027.3 hPa WNW 1.6 km/h 1.6 km/h 84% 0 mm 0.00 W/m2
Country Meadow, Clay, NY, USA
Compliments of Weather Underground - 2 mb